DECAYED

STARLINK-1200, 45181 (Decayed)

Orbit data source: Space-Track

STARLINK-1200, 45181 was a payload satellite owned by SpaceX/Seattle (US) in LEO that was launched on Mon, 17 Feb 2020 UTC via an FALCON 9 launch vehicle from the Air Force Eastern Test Range (AFETR). Payload-class satellites include a variety of spacecraft equipped with specific instruments for various scientific and technological missions. These include communications satellites like Starlink; space stations such as the ISS; scientific satellites like the Hubble; Earth observation satellites from companies like Planet Labs, Umbra, and HawkEye 360; GPS; miniature CubeSats for education and research; and military/defense satellites.

Not visible in the next 10 days
Identifier
45181, 2020-012D
Orbit
Decayed
Country
Flag of USUS
Related business
Manufacturer
SpaceX/Seattle
Mission
Decayed Commercial Communications
Bus & Motor
STARLINK, Unknown motor
Mass
260 kg wet, ~248 kg dry
Launch date (UTC)
2020-02-17 (7 years ago)
Launch vehicle
FALCON 9
Launch site
Air Force Eastern Test Range (AFETR)
Object type
Payload
Rocket body
Debris
Shape & HBR
Box + 1 Pan, 10.1 m
Radar Cross Section
13.562 m², Large (>1 m²)

Expand to show TLE details & history
Last TLE update: 1 year ago

TLE from 1 year ago
0 STARLINK-1200
1 45181U 20012D   25253.99334275  .12539860  12587-4  22263-3 0  9992
2 45181  53.0314  80.0551 0006413 281.1478  78.8850 16.47340083308497
Epoch: 2025-09-10T23:50Z
TLE epoch observation values (Epoch: 2025-09-10T23:50:24.813Z)
Latitude
-0.00005°
Longitude
92.18988°
Altitude
146.476 km
Speed
7.82 km/s
True Right ascension
05h 20m 13s
True Declination
0° 00' 00"
Sunlit
Object was in daylight at epoch
Visualization orbit readout
Latitude
Unknown
Longitude
Unknown
Altitude
Unknown
Speed
Unknown
Apparent Right ascension
Unknown
Apparent Declination
Unknown
Sunlit
N/A
Visualization observer readout
Local Sidereal Time
00:10:51
Azimuth
Unknown
Elevation
Unknown
Doppler factor
Unknown
Orbital elements
Apogee altitude
150.825 km
Perigee altitude
142.456 km
Semi-major axis
6,524.777 km
Eccentricity
0.00064
Inclination
53.0314°
RAAN
80.0551°
Arg. of periapsis
281.1478°
True anomaly
78.95712°
Mean anomaly
78.885°
Eccentric anomaly
78.92106°
Mean motion
4.11808 °/min
Orbital period
87.42 mins
BSTAR
0.00022263
Loading maneuver chart data...
Computing Atmospheric mass density...

Documentation

Showing up to 5 results
|